Home   Weather   Spiez   Past weeks

Flag for Switzerland Past Weather in Spiez, Bern, Switzerland — Yesterday and Last 2 Weeks

Now
27 °F

Chilly.


Feels Like: 27 °F
Forecast: 18 / 38 °F
Wind: 2 mph from Southwest

Location: Interlaken

Current Time: Jan 21, 2017 at 4:47:33 pm

Latest Report: Jan 21, 2017 at 3:00 pm


Visibility: N/A

Pressure: 30.39 "Hg (28.14 "Hg at 607m altitude)

Humidity: 78%

Dew Point: 21 °F

Location of SpiezLocation

Past Weather in Spiez — Graph

°F

Spiez Temperature Yesterday

Maximum temperature yesterday: 26 °F (at 2:00 pm)
Minimum temperature yesterday: 19 °F (at 3:00 am)
Average temperature yesterday: 22 °F

High & Low Weather Summary for the Past Weeks

 TemperatureHumidityPressure
High44 °F (Jan 13, 4:00 am)97% (Jan 13, 12:00 am)30.70 "Hg (Jan 13, 12:00 am)
Low11 °F (Jan 7, 1:00 am)48% (Jan 13, 4:00 am)29.61 "Hg (Jan 13, 1:00 am)
Average26 °F81%30.28 "Hg
* Reported Jan 6 3:00 pm — Jan 21 3:00 pm, Spiez, Weather by CustomWeather, © 2017

Note: Actual official high and low records may vary slightly from our data, if they occured in-between our weather recording intervals... More about our weather records

Advertising

Spiez Weather History for the Previous 24 Hours

Scroll right to see more
 ConditionsComfort  
Time TempWeatherWind HumidityBarometerVisibility
3:00 pm
Sat, Jan 21
27 °FChilly.2 mph78%30.39 "HgN/A
2:00 pm27 °FChilly.2 mph80%30.41 "HgN/A
1:00 pm26 °FChilly.1 mph90%30.43 "HgN/A
12:00 pm25 °FChilly.2 mph93%30.45 "HgN/A
11:00 am24 °FCold.1 mph79%30.47 "HgN/A
10:00 am21 °FCold.6 mph84%30.49 "HgN/A
9:00 am21 °FCold.5 mph85%30.49 "HgN/A
8:00 am22 °FCold.5 mph85%30.48 "HgN/A
7:00 am22 °FCold.6 mph87%30.49 "HgN/A
6:00 am22 °FCold.8 mph90%30.49 "HgN/A
5:00 am22 °FCold.6 mph92%30.50 "HgN/A
4:00 am22 °FCold.3 mph90%30.50 "HgN/A
3:00 am22 °FCold.6 mph87%30.50 "HgN/A
2:00 am22 °FCold.6 mph86%30.50 "HgN/A
1:00 am22 °FCold.6 mph85%30.50 "HgN/A
12:00 am22 °FCold.7 mph86%30.50 "HgN/A
11:00 pm
Fri, Jan 20
23 °FCold.7 mph86%30.50 "HgN/A
10:00 pm23 °FCold.6 mph87%30.51 "HgN/A
9:00 pm22 °FCold.6 mph89%30.52 "HgN/A
8:00 pm23 °FCold.6 mph88%30.50 "HgN/A
7:00 pm23 °FCold.6 mph87%30.50 "HgN/A
6:00 pm22 °FCold.5 mph85%30.50 "HgN/A
5:00 pm22 °FCold.3 mph85%30.50 "HgN/A
4:00 pm24 °FCold.2 mph82%30.48 "HgN/A
Weather by CustomWeather, © 2017

See weather overviewHow to use our weather pages